Regional Weather Roundup
Issued by NWS

Home | Current Version | Previous Version | Graphics & Text | Print | Product List | Glossary On
Versions: 1 2 3 4 5 6 7 8 9 10 11 12 13 14 15 16 17 18 19 20 21 22 23 24 25 26 27 28 29 30 31 32 33 34 35 36 37 38 39 40 41 42 43 44 45 46 47 48 49 50
000
ASUS43 KTOP 230759
RWRKS

WEATHER ROUNDUP FOR KANSAS
NATIONAL WEATHER SERVICE GOODLAND KS
300 AM CDT WED APR 23 2014

NOTE:  "FAIR" INDICATES FEW OR NO CLOUDS BELOW 12,000 FEET WITH NO
SIGNIFICANT WEATHER AND/OR OBSTRUCTIONS TO VISIBILITY.

KSZ001>006-013>018-027>032-041>047-230900-
NORTHWEST KANSAS

CITY           SKY/WX    TMP DP  RH WIND       PRES   REMARKS
GOODLAND       PTCLDY    58  47  66 S26       29.68F
HAYS           CLOUDY    57  32  38 SE17      29.79F
HILL CITY      CLOUDY    59  36  42 S20G29    29.74F
RUSSELL        CLOUDY    59  33  37 SE23G31   29.80F
$$

KSZ061>065-074>080-084>089-230900-
SOUTHWEST KANSAS

CITY           SKY/WX    TMP DP  RH WIND       PRES   REMARKS
DODGE CITY     PTCLDY    58  39  49 S18       29.80F
ELKHART          N/A     63  37  38 S17         N/A
GARDEN CITY    MOCLDY    57  45  64 S16       29.76F
GREAT BEND     MOCLDY    59  30  33 SE17      29.82F
LIBERAL        MOCLDY    63  45  51 SE20G26   29.81F
$$

KSZ066>073-081>083-090>101-230900-
SOUTHEAST KANSAS

CITY           SKY/WX    TMP DP  RH WIND       PRES   REMARKS
CHANUTE        PTCLDY    53  37  54 SE9       29.95F
COFFEYVILLE    PTCLDY    50  39  66 CALM      29.94F
HUTCHINSON     MOCLDY    56  34  43 S12       29.88F
NEWTON         MOCLDY    54  30  40 SE9       29.93S
PARSONS        MOCLDY    58  36  43 E6        29.96F
WICHITA INTL   PTCLDY    57  35  43 SE10      29.89F
WICHITA JABRA  PTCLDY    55  35  47 SE9       29.89F
WINFIELD       CLEAR     56  37  49 SE8       29.92F
$$

KSZ007>012-019>026-033>040-048>060-102>105-230900-
NORTHEAST KANSAS

CITY           SKY/WX    TMP DP  RH WIND       PRES   REMARKS
CONCORDIA      CLOUDY    59  34  39 SE20      29.85F
EMPORIA        MOCLDY    53  37  54 E7        29.95S
LAWRENCE       MOCLDY    52  39  61 SE3       29.97F
MANHATTAN      CLOUDY    58  37  45 SE10      29.90F
OLATHE IND     MOCLDY    54  35  48 SE9       29.96F
OLATHE EXE     MOCLDY    54  34  46 SE8       29.97F
SALINA         CLOUDY    59  33  37 SE12      29.90S
TOPEKA BILLARD CLOUDY    54  38  54 NW3       29.99R
TOPEKA FORBES  CLOUDY    54  36  50 S6        29.98R
$$



USA.gov is the U.S. government's official web portal to all federal, state and local government web resources and services.